Durango, CO

9:18 AM MST on January 18, 2018 (GMT -0700)
Durango-La Plata County

Weather History for KDRO - November, 2012

Change the Weather History Date:

Tuesday, November 6, 2012

  Actual Average Record
Temperature  
Mean Temperature 44 °F 39 °F  
Max Temperature 66 °F 53 °F 70 °F (1980)
Min Temperature 22 °F 25 °F 12 °F (2008)
Degree Days  
Heating Degree Days 21 26  
Month to date heating degree days 128 151  
Since 1 July heating degree days 776 939  
Cooling Degree Days 0 0  
Month to date cooling degree days 0 0  
Year to date cooling degree days 477 243  
Moisture  
Dew Point 16 °F    
Average Humidity 34    
Maximum Humidity 54    
Minimum Humidity 13    
Precipitation  
Precipitation 0.00 in 0.05 in 0.86 in (1977)
Month to date precipitation 0.00 0.35  
Year to date precipitation 5.81 13.57  
Sea Level Pressure  
Sea Level Pressure 30.27 in    
Wind  
Wind Speed 4 mph (NNW)    
Max Wind Speed 12 mph    
Max Gust Speed 16 mph    
Visibility 10 miles    
Events      
T = Trace of Precipitation, MM = Missing Value Source: NWS Daily Summary

Daily Weather History Graph

Daily Weather History Graph

Search for Another Location

Airport or City:

Trip Planner

Search our weather history database for the weather conditions in past years. The results will help you decide how hot, cold, wet, or windy it might be!

Date:

Astronomy

Nov. 06, 2012 Rise Set
Actual Time 6:41 AM MST 5:07 PM MST
Civil Twilight 6:13 AM MST 5:35 PM MST
Nautical Twilight 5:42 AM MST 6:06 PM MST
Astronomical Twilight 5:12 AM MST 6:36 PM MST
Moon 11:48 PM MST (11/6) 12:36 PM MST (11/6)
Length of Visible Light 11h 21m
Length of Day
10h 26m
Waning Gibbous, 52% of the Moon is Illuminated
Nov 6
Waning Gibbous
Nov 6
Last Quarter
Nov 13
New
Nov 20
First Quarter
Nov 28
Full

Hourly Weather History & Observations

Time (MST) Temp. Windchill Dew Point Humidity Pressure Visibility Wind Dir Wind Speed Gust Speed Precip Events Conditions
12:53 AM 32.0 °F 26.4 °F 16.0 °F 52% 30.25 in 10.0 mi NE 5.8 mph - N/A   Clear
1:53 AM 32.0 °F - 17.1 °F 54% 30.26 in 10.0 mi Calm Calm - N/A   Clear
2:53 AM 32.0 °F 27.5 °F 15.1 °F 50% 30.23 in 10.0 mi North 4.6 mph - N/A   Clear
3:53 AM 30.0 °F - 14.0 °F 51% 30.24 in 10.0 mi Calm Calm - N/A   Clear
4:53 AM 30.0 °F 23.2 °F 14.0 °F 51% 30.27 in 10.0 mi North 6.9 mph - N/A   Clear
5:53 AM 28.9 °F 22.8 °F 12.9 °F 51% 30.29 in 10.0 mi North 5.8 mph - N/A   Clear
6:53 AM 28.0 °F - 12.9 °F 53% 30.35 in 10.0 mi Calm Calm - N/A   Clear
7:53 AM 33.1 °F - 15.1 °F 48% 30.36 in 10.0 mi Calm Calm - N/A   Clear
8:53 AM 39.0 °F 34.0 °F 18.0 °F 43% 30.37 in 10.0 mi East 6.9 mph - N/A   Clear
9:53 AM 50.0 °F - 18.0 °F 28% 30.33 in 10.0 mi ENE 6.9 mph - N/A   Clear
10:53 AM 54.0 °F - 18.0 °F 24% 30.31 in 10.0 mi Calm Calm - N/A   Clear
11:53 AM 60.1 °F - 17.1 °F 19% 30.26 in 10.0 mi Calm Calm - N/A   Clear
12:53 PM 64.0 °F - 17.1 °F 16% 30.21 in 10.0 mi West 9.2 mph - N/A   Clear
1:53 PM 64.9 °F - 12.9 °F 13% 30.18 in 10.0 mi WSW 9.2 mph - N/A   Clear
2:53 PM 66.0 °F - 16.0 °F 15% 30.18 in 10.0 mi SSW 6.9 mph - N/A   Clear
3:53 PM 64.0 °F - 17.1 °F 16% 30.19 in 10.0 mi SSW 6.9 mph - N/A   Clear
4:53 PM 61.0 °F - 18.0 °F 19% 30.21 in 10.0 mi SW 6.9 mph - N/A   Clear
5:53 PM 55.0 °F - 18.0 °F 23% 30.26 in 10.0 mi SW 4.6 mph - N/A   Clear
6:53 PM 48.9 °F - 17.1 °F 28% 30.29 in 10.0 mi Calm Calm - N/A   Clear
7:53 PM 45.0 °F 40.1 °F 16.0 °F 31% 30.30 in 10.0 mi North 9.2 mph - N/A   Clear
8:53 PM 39.9 °F 37.8 °F 16.0 °F 38% 30.30 in 10.0 mi ENE 3.5 mph - N/A   Clear
9:53 PM 39.0 °F - 16.0 °F 39% 30.26 in 10.0 mi Calm Calm - N/A   Clear
10:53 PM 36.0 °F - 15.1 °F 43% 30.26 in 10.0 mi Calm Calm - N/A   Clear
11:53 PM 32.0 °F - 12.9 °F 45% 30.26 in 10.0 mi Calm Calm - N/A   Clear